Time,TemperatureF,DewpointF,PressureIn,WindDirection,WindDirectionDegrees,WindSpeedMPH,WindSpeedGustMPH,Humidity,HourlyPrecipIn,Conditions,Clouds,dailyrainin,SoftwareType,DateUTC
2013-03-10 00:01:00,28.8,27.5,29.67,West,269,0.0,4.0,95,0.00,,---,0.14,VWS V13.01,2013-03-10 06:01:00,
2013-03-10 00:06:00,28.8,27.5,29.67,West,269,0.0,3.0,95,0.00,,---,0.00,VWS V13.01,2013-03-10 06:06:00,
2013-03-10 00:11:00,28.8,27.5,29.67,West,269,0.0,4.0,95,0.00,,---,0.00,VWS V13.01,2013-03-10 06:11:00,
2013-03-10 00:16:00,28.8,27.5,29.67,West,269,0.0,4.0,95,0.00,,---,0.00,VWS V13.01,2013-03-10 06:16:00,
2013-03-10 00:22:00,28.8,27.5,29.69,West,275,2.0,4.0,95,0.00,,---,0.00,VWS V13.01,2013-03-10 06:22:00,
2013-03-10 00:27:00,28.8,27.5,29.69,West,277,3.0,4.0,95,0.00,,---,0.00,VWS V13.01,2013-03-10 06:27:00,
2013-03-10 00:32:00,28.8,27.5,29.70,West,277,3.0,4.0,95,0.00,,---,0.00,VWS V13.01,2013-03-10 06:32:00,
2013-03-10 00:37:00,28.8,27.5,29.70,West,277,3.0,4.0,95,0.00,,---,0.00,VWS V13.01,2013-03-10 06:37:00,
2013-03-10 00:43:00,28.8,27.5,29.70,West,275,2.0,4.0,95,0.00,,---,0.00,VWS V13.01,2013-03-10 06:43:00,
2013-03-10 00:48:00,28.8,27.5,29.69,WNW,282,2.0,6.0,95,0.00,,---,0.00,VWS V13.01,2013-03-10 06:48:00,
2013-03-10 00:53:00,28.9,27.6,29.69,West,274,5.0,5.0,95,0.00,,---,0.00,VWS V13.01,2013-03-10 06:53:00,
2013-03-10 00:56:00,28.8,27.5,29.70,NW,314,5.0,7.0,95,0.00,,---,0.00,VWS V13.01,2013-03-10 06:56:00,
2013-03-10 00:57:00,28.8,27.5,29.70,WNW,298,3.0,7.0,95,0.00,,---,0.00,VWS V13.01,2013-03-10 06:57:00,
2013-03-10 00:58:00,28.9,27.6,29.69,WNW,300,1.0,6.0,95,0.00,,---,0.00,VWS V13.01,2013-03-10 06:58:00,
2013-03-10 00:59:00,28.8,27.5,29.70,NW,306,2.0,7.0,95,0.00,,---,0.00,VWS V13.01,2013-03-10 06:59:00,
2013-03-10 01:03:00,28.9,27.6,29.69,NW,313,4.0,4.0,95,0.00,,---,0.00,VWS V13.01,2013-03-10 07:03:00,
2013-03-10 01:09:00,29.0,27.8,29.69,NW,305,4.0,5.0,95,0.00,,---,0.00,VWS V13.01,2013-03-10 07:09:00,
2013-03-10 01:14:00,29.0,27.8,29.69,WNW,285,1.0,6.0,95,0.00,,---,0.00,VWS V13.01,2013-03-10 07:14:00,
2013-03-10 01:19:00,29.0,27.8,29.69,WNW,293,3.0,5.0,95,0.00,,---,0.00,VWS V13.01,2013-03-10 07:19:00,
2013-03-10 01:24:00,28.9,27.6,29.69,WNW,296,5.0,6.0,95,0.00,,---,0.00,VWS V13.01,2013-03-10 07:24:00,
2013-03-10 01:30:00,28.9,27.6,29.69,WNW,298,2.0,6.0,95,0.00,,---,0.00,VWS V13.01,2013-03-10 07:30:00,
2013-03-10 01:35:00,28.9,27.6,29.69,WNW,298,3.0,6.0,95,0.00,,---,0.00,VWS V13.01,2013-03-10 07:35:00,
2013-03-10 01:40:00,28.9,27.6,29.69,WNW,298,3.0,6.0,95,0.00,,---,0.00,VWS V13.01,2013-03-10 07:40:00,
2013-03-10 01:46:00,28.8,27.5,29.69,NW,311,2.0,7.0,95,0.00,,---,0.00,VWS V13.01,2013-03-10 07:46:00,
2013-03-10 01:51:00,28.8,27.5,29.70,NW,306,2.0,7.0,95,0.00,,---,0.00,VWS V13.01,2013-03-10 07:51:00,
2013-03-10 01:56:00,28.8,27.5,29.70,NW,314,4.0,7.0,95,0.00,,---,0.00,VWS V13.01,2013-03-10 07:56:00,
2013-03-10 03:03:00,28.8,27.5,29.70,NW,306,2.0,7.0,95,0.00,,---,0.00,VWS V13.01,2013-03-10 08:03:00,
2013-03-10 03:08:00,28.8,27.5,29.70,WNW,291,3.0,7.0,95,0.00,,---,0.00,VWS V13.01,2013-03-10 08:08:00,
2013-03-10 03:13:00,28.8,27.5,29.70,NW,313,5.0,7.0,95,0.00,,---,0.00,VWS V13.01,2013-03-10 08:13:00,
2013-03-10 03:18:00,28.8,27.5,29.71,WNW,286,2.0,3.0,95,0.00,,---,0.00,VWS V13.01,2013-03-10 08:18:00,
2013-03-10 03:23:00,28.8,27.5,29.71,West,269,4.0,10.0,95,0.00,,---,0.00,VWS V13.01,2013-03-10 08:23:00,
2013-03-10 03:29:00,28.8,27.5,29.71,WNW,290,2.0,10.0,95,0.00,,---,0.00,VWS V13.01,2013-03-10 08:29:00,
2013-03-10 03:34:00,28.8,27.5,29.72,NW,326,2.0,4.0,95,0.00,,---,0.00,VWS V13.01,2013-03-10 08:34:00,
2013-03-10 03:39:00,28.8,27.5,29.72,WNW,302,4.0,6.0,95,0.00,,---,0.00,VWS V13.01,2013-03-10 08:39:00,
2013-03-10 03:45:00,28.8,27.5,29.72,NW,325,5.0,9.0,95,0.00,,---,0.00,VWS V13.01,2013-03-10 08:45:00,
2013-03-10 03:50:00,28.8,27.5,29.71,NW,309,3.0,5.0,95,0.00,,---,0.00,VWS V13.01,2013-03-10 08:50:00,
2013-03-10 03:55:00,28.9,27.6,29.71,NW,305,1.0,9.0,95,0.00,,---,0.00,VWS V13.01,2013-03-10 08:55:00,
2013-03-10 04:00:00,28.9,27.6,29.71,WNW,302,4.0,9.0,95,0.00,,---,0.00,VWS V13.01,2013-03-10 09:00:00,
2013-03-10 04:06:00,28.9,27.6,29.72,West,275,6.0,10.0,95,0.00,,---,0.00,VWS V13.01,2013-03-10 09:06:00,
2013-03-10 04:11:00,28.9,27.6,29.72,West,277,2.0,10.0,95,0.00,,---,0.00,VWS V13.01,2013-03-10 09:11:00,
2013-03-10 04:16:00,28.9,27.6,29.72,NW,315,2.0,10.0,95,0.00,,---,0.00,VWS V13.01,2013-03-10 09:16:00,
2013-03-10 04:21:00,28.8,27.5,29.72,NW,316,5.0,7.0,95,0.00,,---,0.00,VWS V13.01,2013-03-10 09:21:00,
2013-03-10 04:27:00,28.8,27.5,29.72,North,350,3.0,9.0,95,0.00,,---,0.00,VWS V13.01,2013-03-10 09:27:00,
2013-03-10 04:32:00,28.8,27.5,29.71,NNW,333,3.0,9.0,95,0.00,,---,0.00,VWS V13.01,2013-03-10 09:32:00,
2013-03-10 04:37:00,28.8,27.5,29.71,NW,312,7.0,11.0,95,0.00,,---,0.00,VWS V13.01,2013-03-10 09:37:00,
2013-03-10 04:42:00,28.8,27.5,29.71,NNW,340,6.0,11.0,95,0.00,,---,0.00,VWS V13.01,2013-03-10 09:42:00,
2013-03-10 04:48:00,28.8,27.5,29.73,NNW,333,8.0,11.0,95,0.00,,---,0.00,VWS V13.01,2013-03-10 09:48:00,
2013-03-10 04:53:00,28.8,27.5,29.73,NNW,345,4.0,13.0,95,0.00,,---,0.00,VWS V13.01,2013-03-10 09:53:00,
2013-03-10 04:58:00,28.8,27.5,29.73,NNW,331,1.0,13.0,95,0.00,,---,0.00,VWS V13.01,2013-03-10 09:58:00,
2013-03-10 05:03:00,28.7,27.5,29.73,WNW,296,2.0,4.0,95,0.00,,---,0.00,VWS V13.01,2013-03-10 10:03:00,
2013-03-10 05:09:00,28.7,27.5,29.73,NNW,332,3.0,9.0,95,0.00,,---,0.00,VWS V13.01,2013-03-10 10:09:00,
2013-03-10 05:14:00,28.6,27.4,29.73,NW,312,5.0,10.0,95,0.00,,---,0.00,VWS V13.01,2013-03-10 10:14:00,
2013-03-10 05:19:00,28.6,27.4,29.74,NNW,344,5.0,10.0,95,0.00,,---,0.00,VWS V13.01,2013-03-10 10:19:00,
2013-03-10 05:24:00,28.5,27.2,29.74,NNW,332,4.0,14.0,95,0.00,,---,0.00,VWS V13.01,2013-03-10 10:24:00,
2013-03-10 05:30:00,28.5,27.2,29.74,NNW,342,4.0,14.0,95,0.00,,---,0.00,VWS V13.01,2013-03-10 10:30:00,
2013-03-10 05:35:00,28.5,27.2,29.75,NW,308,7.0,7.0,95,0.00,,---,0.00,VWS V13.01,2013-03-10 10:35:00,
2013-03-10 05:40:00,28.4,26.9,29.75,NNW,329,2.0,13.0,94,0.00,,---,0.00,VWS V13.01,2013-03-10 10:40:00,
2013-03-10 05:45:00,28.3,26.8,29.75,NW,313,7.0,13.0,94,0.00,,---,0.00,VWS V13.01,2013-03-10 10:45:00,
2013-03-10 05:51:00,28.3,26.8,29.78,NW,320,6.0,14.0,94,0.00,,---,0.00,VWS V13.01,2013-03-10 10:51:00,
2013-03-10 05:56:00,28.2,26.4,29.78,NNW,331,5.0,15.0,93,0.00,,---,0.00,VWS V13.01,2013-03-10 10:56:00,
2013-03-10 06:01:00,28.1,26.3,29.78,NW,316,2.0,16.0,93,0.00,,---,0.00,VWS V13.01,2013-03-10 11:01:00,
2013-03-10 06:06:00,28.1,26.3,29.78,North,350,5.0,13.0,93,0.00,,---,0.00,VWS V13.01,2013-03-10 11:06:00,
2013-03-10 06:12:00,28.0,26.2,29.78,NNW,332,3.0,16.0,93,0.00,,---,0.00,VWS V13.01,2013-03-10 11:12:00,
2013-03-10 06:17:00,28.0,26.2,29.79,NW,321,5.0,16.0,93,0.00,,---,0.00,VWS V13.01,2013-03-10 11:17:00,
2013-03-10 06:22:00,28.0,26.2,29.79,North,350,13.0,14.0,93,0.00,,---,0.00,VWS V13.01,2013-03-10 11:22:00,
2013-03-10 06:27:00,27.9,26.1,29.79,NW,317,2.0,14.0,93,0.00,,---,0.00,VWS V13.01,2013-03-10 11:27:00,
2013-03-10 06:33:00,27.9,26.1,29.80,NNW,336,4.0,14.0,93,0.00,,---,0.00,VWS V13.01,2013-03-10 11:33:00,
2013-03-10 06:38:00,27.9,26.1,29.80,NNW,333,4.0,7.0,93,0.00,,---,0.00,VWS V13.01,2013-03-10 11:38:00,
2013-03-10 06:43:00,27.8,26.0,29.80,NNW,344,6.0,11.0,93,0.00,,---,0.00,VWS V13.01,2013-03-10 11:43:00,
2013-03-10 06:48:00,27.8,26.0,29.81,NNW,330,2.0,5.0,93,0.00,,---,0.00,VWS V13.01,2013-03-10 11:48:00,
2013-03-10 06:54:00,27.8,26.0,29.81,North,355,4.0,12.0,93,0.00,,---,0.00,VWS V13.01,2013-03-10 11:54:00,
2013-03-10 06:59:00,27.7,25.9,29.81,NNW,327,14.0,14.0,93,0.00,,---,0.00,VWS V13.01,2013-03-10 11:59:00,
2013-03-10 07:04:00,27.7,25.9,29.82,NNW,342,4.0,9.0,93,0.00,,---,0.00,VWS V13.01,2013-03-10 12:04:00,
2013-03-10 07:10:00,27.6,25.8,29.82,NW,319,2.0,17.0,93,0.00,,---,0.00,VWS V13.01,2013-03-10 12:10:00,
2013-03-10 07:15:00,27.6,25.8,29.82,NW,325,3.0,17.0,93,0.00,,---,0.00,VWS V13.01,2013-03-10 12:15:00,
2013-03-10 07:20:00,27.6,25.8,29.83,North,355,2.0,15.0,93,0.00,,---,0.00,VWS V13.01,2013-03-10 12:20:00,
2013-03-10 07:25:00,27.6,25.8,29.83,NNW,338,11.0,15.0,93,0.00,,---,0.00,VWS V13.01,2013-03-10 12:25:00,
2013-03-10 07:31:00,27.6,25.8,29.83,NW,324,3.0,15.0,93,0.00,,---,0.00,VWS V13.01,2013-03-10 12:31:00,
2013-03-10 07:36:00,27.5,25.8,29.84,North,349,3.0,10.0,93,0.00,,---,0.00,VWS V13.01,2013-03-10 12:36:00,
2013-03-10 07:41:00,27.5,25.8,29.84,NNW,337,2.0,10.0,93,0.00,,---,0.00,VWS V13.01,2013-03-10 12:41:00,
2013-03-10 07:46:00,27.5,25.8,29.84,NNW,345,3.0,14.0,93,0.00,,---,0.00,VWS V13.01,2013-03-10 12:46:00,
2013-03-10 07:51:00,27.4,25.6,29.85,NNW,334,4.0,14.0,93,0.00,,---,0.00,VWS V13.01,2013-03-10 12:51:00,
2013-03-10 07:57:00,27.4,25.6,29.85,NNW,333,8.0,14.0,93,0.00,,---,0.00,VWS V13.01,2013-03-10 12:57:00,
2013-03-10 08:02:00,27.3,25.3,29.85,NNW,340,9.0,14.0,92,0.00,,---,0.00,VWS V13.01,2013-03-10 13:02:00,
2013-03-10 08:07:00,27.3,25.3,29.85,North,355,4.0,11.0,92,0.00,,---,0.00,VWS V13.01,2013-03-10 13:07:00,
2013-03-10 08:12:00,27.3,25.3,29.85,NW,317,7.0,14.0,92,0.00,,---,0.00,VWS V13.01,2013-03-10 13:12:00,
2013-03-10 08:18:00,27.3,25.3,29.86,NNW,336,1.0,14.0,92,0.00,,---,0.00,VWS V13.01,2013-03-10 13:18:00,
2013-03-10 08:23:00,27.2,25.2,29.86,NW,322,7.0,13.0,92,0.00,,---,0.00,VWS V13.01,2013-03-10 13:23:00,
2013-03-10 08:28:00,27.3,25.3,29.86,North,355,7.0,13.0,92,0.00,,---,0.00,VWS V13.01,2013-03-10 13:28:00,
2013-03-10 08:34:00,27.2,25.2,29.88,NNW,348,4.0,6.0,92,0.00,,---,0.00,VWS V13.01,2013-03-10 13:34:00,
2013-03-10 08:39:00,27.2,25.2,29.88,NNW,338,4.0,12.0,92,0.00,,---,0.00,VWS V13.01,2013-03-10 13:39:00,
2013-03-10 08:44:00,27.2,25.2,29.88,NW,325,5.0,12.0,92,0.00,,---,0.00,VWS V13.01,2013-03-10 13:44:00,
2013-03-10 08:49:00,27.1,25.1,29.88,North,355,6.0,11.0,92,0.00,,---,0.00,VWS V13.01,2013-03-10 13:49:00,
2013-03-10 08:55:00,27.1,25.1,29.88,NNW,340,3.0,13.0,92,0.00,,---,0.00,VWS V13.01,2013-03-10 13:55:00,
2013-03-10 09:00:00,27.1,25.1,29.88,NNE,13,4.0,16.0,92,0.00,,---,0.00,VWS V13.01,2013-03-10 14:00:00,
2013-03-10 09:05:00,27.1,25.1,29.89,NNW,346,4.0,12.0,92,0.00,,---,0.00,VWS V13.01,2013-03-10 14:05:00,
2013-03-10 09:10:00,27.0,25.0,29.89,North,5,1.0,12.0,92,0.00,,---,0.00,VWS V13.01,2013-03-10 14:10:00,
2013-03-10 09:16:00,26.9,24.9,29.89,NNW,335,5.0,12.0,92,0.00,,---,0.00,VWS V13.01,2013-03-10 14:16:00,
2013-03-10 09:21:00,26.9,24.9,29.88,NNW,335,7.0,13.0,92,0.00,,---,0.00,VWS V13.01,2013-03-10 14:21:00,
2013-03-10 09:26:00,26.9,24.9,29.88,North,5,6.0,13.0,92,0.00,,---,0.00,VWS V13.01,2013-03-10 14:26:00,
2013-03-10 09:31:00,26.8,24.8,29.88,NW,322,10.0,13.0,92,0.00,,---,0.00,VWS V13.01,2013-03-10 14:31:00,
2013-03-10 09:37:00,26.7,24.7,29.88,NW,325,9.0,15.0,92,0.00,,---,0.00,VWS V13.01,2013-03-10 14:37:00,
2013-03-10 09:42:00,26.7,24.4,29.88,North,350,10.0,15.0,91,0.00,,---,0.00,VWS V13.01,2013-03-10 14:42:00,
2013-03-10 09:47:00,26.8,24.3,29.90,NNE,24,6.0,17.0,90,0.00,,---,0.00,VWS V13.01,2013-03-10 14:47:00,
2013-03-10 09:52:00,26.9,24.4,29.90,NW,324,5.0,15.0,90,0.00,,---,0.00,VWS V13.01,2013-03-10 14:52:00,
2013-03-10 09:58:00,26.9,24.1,29.90,North,360,5.0,15.0,89,0.00,,---,0.00,VWS V13.01,2013-03-10 14:58:00,
2013-03-10 10:03:00,27.0,24.2,29.92,NNW,337,4.0,15.0,89,0.00,,---,0.00,VWS V13.01,2013-03-10 15:03:00,
2013-03-10 10:08:00,27.1,24.3,29.92,NW,319,4.0,14.0,89,0.00,,---,0.00,VWS V13.01,2013-03-10 15:08:00,
2013-03-10 10:13:00,27.1,24.3,29.92,NNW,330,3.0,15.0,89,0.00,,---,0.00,VWS V13.01,2013-03-10 15:13:00,
2013-03-10 10:18:00,27.0,24.2,29.94,NNW,342,5.0,11.0,89,0.00,,---,0.00,VWS V13.01,2013-03-10 15:18:00,
2013-03-10 10:24:00,27.0,24.2,29.94,North,5,9.0,14.0,89,0.00,,---,0.00,VWS V13.01,2013-03-10 15:24:00,
2013-03-10 10:29:00,26.9,24.1,29.94,NNE,12,3.0,15.0,89,0.00,,---,0.00,VWS V13.01,2013-03-10 15:29:00,
2013-03-10 10:34:00,26.7,23.9,29.93,NW,325,0.0,6.0,89,0.00,,---,0.00,VWS V13.01,2013-03-10 15:34:00,
2013-03-10 10:40:00,26.4,23.3,29.93,NNE,22,7.0,18.0,88,0.00,,---,0.00,VWS V13.01,2013-03-10 15:40:00,
2013-03-10 10:45:00,26.2,23.1,29.93,NNE,28,13.0,18.0,88,0.00,,---,0.00,VWS V13.01,2013-03-10 15:45:00,
2013-03-10 10:50:00,26.1,23.0,29.97,North,355,3.0,12.0,88,0.00,,---,0.00,VWS V13.01,2013-03-10 15:50:00,
2013-03-10 10:55:00,26.0,22.9,29.97,NW,309,10.0,17.0,88,0.00,,---,0.00,VWS V13.01,2013-03-10 15:55:00,
2013-03-10 11:00:00,26.1,23.0,29.97,NNW,348,5.0,17.0,88,0.00,,---,0.00,VWS V13.01,2013-03-10 16:00:00,
2013-03-10 11:06:00,26.1,22.8,29.96,NNW,345,6.0,19.0,87,0.00,,---,0.00,VWS V13.01,2013-03-10 16:06:00,
2013-03-10 11:11:00,26.2,22.9,29.96,NNW,340,5.0,19.0,87,0.00,,---,0.00,VWS V13.01,2013-03-10 16:11:00,
2013-03-10 11:16:00,26.2,22.9,29.96,NNE,32,10.0,19.0,87,0.00,,---,0.00,VWS V13.01,2013-03-10 16:16:00,
2013-03-10 11:21:00,26.1,22.8,29.96,North,10,10.0,14.0,87,0.00,,---,0.00,VWS V13.01,2013-03-10 16:21:00,
2013-03-10 11:26:00,26.1,23.0,29.96,NNW,340,9.0,14.0,88,0.00,,---,0.00,VWS V13.01,2013-03-10 16:26:00,
2013-03-10 11:32:00,26.0,22.9,29.96,NNW,334,6.0,18.0,88,0.00,,---,0.00,VWS V13.01,2013-03-10 16:32:00,
2013-03-10 11:37:00,25.9,22.8,29.97,North,360,11.0,14.0,88,0.00,,---,0.00,VWS V13.01,2013-03-10 16:37:00,
2013-03-10 11:42:00,25.9,22.8,29.97,NNW,345,6.0,15.0,88,0.00,,---,0.00,VWS V13.01,2013-03-10 16:42:00,
2013-03-10 11:47:00,25.8,22.7,29.97,NW,311,4.0,16.0,88,0.00,,---,0.00,VWS V13.01,2013-03-10 16:47:00,
2013-03-10 11:53:00,25.8,22.7,29.97,NW,319,3.0,14.0,88,0.00,,---,0.00,VWS V13.01,2013-03-10 16:53:00,
2013-03-10 11:58:00,25.8,22.7,29.97,North,5,10.0,14.0,88,0.00,,---,0.00,VWS V13.01,2013-03-10 16:58:00,
2013-03-10 12:03:00,25.8,22.5,30.00,NNW,340,10.0,16.0,87,0.00,,---,0.00,VWS V13.01,2013-03-10 17:03:00,
2013-03-10 12:08:00,25.9,22.8,30.00,NNW,343,6.0,12.0,88,0.00,,---,0.00,VWS V13.01,2013-03-10 17:08:00,
2013-03-10 12:13:00,26.0,22.7,30.00,NNW,336,3.0,12.0,87,0.00,,---,0.00,VWS V13.01,2013-03-10 17:13:00,
2013-03-10 12:19:00,26.0,22.7,30.00,NNE,20,6.0,13.0,87,0.00,,---,0.00,VWS V13.01,2013-03-10 17:19:00,
2013-03-10 12:24:00,25.8,22.5,30.00,NNW,338,1.0,14.0,87,0.00,,---,0.00,VWS V13.01,2013-03-10 17:24:00,
2013-03-10 12:29:00,25.7,22.1,30.00,NNW,348,5.0,14.0,86,0.00,,---,0.00,VWS V13.01,2013-03-10 17:29:00,
2013-03-10 12:34:00,25.6,22.0,30.00,NNW,335,11.0,15.0,86,0.00,,---,0.00,VWS V13.01,2013-03-10 17:34:00,
2013-03-10 12:40:00,25.4,22.1,30.00,NNW,329,6.0,19.0,87,0.00,,---,0.00,VWS V13.01,2013-03-10 17:40:00,
2013-03-10 12:45:00,25.3,22.0,30.00,North,5,6.0,19.0,87,0.00,,---,0.00,VWS V13.01,2013-03-10 17:45:00,
2013-03-10 12:50:00,25.5,22.2,30.00,NNE,17,5.0,11.0,87,0.00,,---,0.00,VWS V13.01,2013-03-10 17:50:00,
2013-03-10 12:55:00,25.7,22.4,30.00,North,360,3.0,15.0,87,0.00,,---,0.00,VWS V13.01,2013-03-10 17:55:00,
2013-03-10 13:01:00,25.6,22.0,30.00,NNW,327,6.0,15.0,86,0.00,,---,0.00,VWS V13.01,2013-03-10 18:01:00,
2013-03-10 13:06:00,25.4,21.8,30.00,NNW,330,5.0,14.0,86,0.00,,---,0.00,VWS V13.01,2013-03-10 18:06:00,
2013-03-10 13:11:00,25.1,21.8,30.00,NNW,336,5.0,17.0,87,0.00,,---,0.00,VWS V13.01,2013-03-10 18:11:00,
2013-03-10 13:16:00,24.8,21.5,30.00,NNW,344,4.0,17.0,87,0.00,,---,0.00,VWS V13.01,2013-03-10 18:16:00,
2013-03-10 13:22:00,24.7,21.7,30.00,NNW,331,4.0,16.0,88,0.00,,---,0.00,VWS V13.01,2013-03-10 18:22:00,
2013-03-10 13:27:00,24.6,21.6,30.00,NNW,334,6.0,16.0,88,0.00,,---,0.00,VWS V13.01,2013-03-10 18:27:00,
2013-03-10 13:32:00,24.5,21.2,30.00,NW,309,5.0,17.0,87,0.00,,---,0.00,VWS V13.01,2013-03-10 18:32:00,
2013-03-10 13:37:00,24.5,21.5,30.00,NNW,331,15.0,15.0,88,0.00,,---,0.00,VWS V13.01,2013-03-10 18:37:00,
2013-03-10 13:43:00,24.5,21.5,30.00,NNW,341,2.0,22.0,88,0.00,,---,0.00,VWS V13.01,2013-03-10 18:43:00,
2013-03-10 13:48:00,24.5,21.2,29.99,NW,323,12.0,22.0,87,0.00,,---,0.00,VWS V13.01,2013-03-10 18:48:00,
2013-03-10 13:53:00,24.4,21.1,29.99,NW,314,2.0,15.0,87,0.00,,---,0.00,VWS V13.01,2013-03-10 18:53:00,
2013-03-10 13:58:00,24.4,21.1,29.99,NNW,345,9.0,16.0,87,0.00,,---,0.00,VWS V13.01,2013-03-10 18:58:00,
2013-03-10 14:03:00,24.4,21.1,29.99,North,355,7.0,12.0,87,0.00,,---,0.00,VWS V13.01,2013-03-10 19:03:00,
2013-03-10 14:08:00,24.4,21.1,29.99,NNW,339,12.0,12.0,87,0.00,,---,0.00,VWS V13.01,2013-03-10 19:08:00,
2013-03-10 14:14:00,24.3,21.0,29.99,NNW,334,12.0,16.0,87,0.00,,---,0.00,VWS V13.01,2013-03-10 19:14:00,
2013-03-10 14:19:00,24.3,21.3,30.01,WNW,293,6.0,13.0,88,0.00,,---,0.00,VWS V13.01,2013-03-10 19:19:00,
2013-03-10 14:24:00,24.2,20.9,30.01,NNW,336,4.0,16.0,87,0.00,,---,0.00,VWS V13.01,2013-03-10 19:24:00,
2013-03-10 14:29:00,24.2,20.6,30.03,NNW,339,3.0,16.0,86,0.00,,---,0.00,VWS V13.01,2013-03-10 19:29:00,
2013-03-10 14:35:00,24.4,20.8,30.03,North,360,6.0,13.0,86,0.00,,---,0.00,VWS V13.01,2013-03-10 19:35:00,
2013-03-10 14:40:00,24.5,20.9,30.03,NNW,344,2.0,14.0,86,0.00,,---,0.00,VWS V13.01,2013-03-10 19:40:00,
2013-03-10 14:45:00,24.6,20.7,30.03,NNW,346,4.0,9.0,85,0.00,,---,0.00,VWS V13.01,2013-03-10 19:45:00,
2013-03-10 14:50:00,24.8,20.7,30.03,North,5,10.0,13.0,84,0.00,,---,0.00,VWS V13.01,2013-03-10 19:50:00,
2013-03-10 14:55:00,24.8,20.4,30.03,North,355,4.0,15.0,83,0.00,,---,0.00,VWS V13.01,2013-03-10 19:55:00,
2013-03-10 15:01:00,24.9,20.8,30.03,North,355,9.0,10.0,84,0.00,,---,0.00,VWS V13.01,2013-03-10 20:01:00,
2013-03-10 15:06:00,25.1,20.7,30.03,NW,320,12.0,14.0,83,0.00,,---,0.00,VWS V13.01,2013-03-10 20:06:00,
2013-03-10 15:12:00,24.8,20.1,30.03,North,355,6.0,14.0,82,0.00,,---,0.00,VWS V13.01,2013-03-10 20:12:00,
2013-03-10 15:17:00,24.6,19.9,30.02,North,355,10.0,16.0,82,0.00,,---,0.00,VWS V13.01,2013-03-10 20:17:00,
2013-03-10 15:22:00,24.4,19.7,30.02,NNW,335,10.0,16.0,82,0.00,,---,0.00,VWS V13.01,2013-03-10 20:22:00,
2013-03-10 15:27:00,24.4,20.0,30.02,North,5,13.0,16.0,83,0.00,,---,0.00,VWS V13.01,2013-03-10 20:27:00,
2013-03-10 15:32:00,24.3,19.9,30.03,NNE,24,6.0,14.0,83,0.00,,---,0.00,VWS V13.01,2013-03-10 20:32:00,
2013-03-10 15:37:00,24.4,19.7,30.03,NNE,15,3.0,19.0,82,0.00,,---,0.00,VWS V13.01,2013-03-10 20:37:00,
2013-03-10 15:43:00,24.4,19.7,30.03,North,351,12.0,19.0,82,0.00,,---,0.00,VWS V13.01,2013-03-10 20:43:00,
2013-03-10 15:48:00,24.4,20.0,30.01,North,11,3.0,13.0,83,0.00,,---,0.00,VWS V13.01,2013-03-10 20:48:00,
2013-03-10 15:53:00,24.4,19.7,30.01,NNE,16,7.0,15.0,82,0.00,,---,0.00,VWS V13.01,2013-03-10 20:53:00,
2013-03-10 15:58:00,24.4,19.7,30.01,NNE,14,5.0,16.0,82,0.00,,---,0.00,VWS V13.01,2013-03-10 20:58:00,
2013-03-10 16:03:00,24.3,19.6,30.01,NNW,333,11.0,19.0,82,0.00,,---,0.00,VWS V13.01,2013-03-10 21:03:00,
2013-03-10 16:08:00,24.2,19.8,30.01,North,10,5.0,19.0,83,0.00,,---,0.00,VWS V13.01,2013-03-10 21:08:00,
2013-03-10 16:14:00,24.3,20.2,30.01,NNW,337,9.0,19.0,84,0.00,,---,0.00,VWS V13.01,2013-03-10 21:14:00,
2013-03-10 16:19:00,24.2,19.8,30.01,NNE,27,3.0,17.0,83,0.00,,---,0.00,VWS V13.01,2013-03-10 21:19:00,
2013-03-10 16:24:00,24.2,20.1,30.01,North,360,2.0,17.0,84,0.00,,---,0.00,VWS V13.01,2013-03-10 21:24:00,
2013-03-10 16:29:00,24.1,20.0,30.02,North,5,6.0,17.0,84,0.00,,---,0.00,VWS V13.01,2013-03-10 21:29:00,
2013-03-10 16:34:00,24.0,19.9,30.02,NE,37,5.0,21.0,84,0.00,,---,0.00,VWS V13.01,2013-03-10 21:34:00,
2013-03-10 16:39:00,23.9,19.8,30.02,North,5,11.0,21.0,84,0.00,,---,0.00,VWS V13.01,2013-03-10 21:39:00,
2013-03-10 16:45:00,24.0,19.9,30.03,NNW,333,10.0,21.0,84,0.00,,---,0.00,VWS V13.01,2013-03-10 21:45:00,
2013-03-10 16:50:00,23.9,19.5,30.03,NNE,19,5.0,16.0,83,0.00,,---,0.00,VWS V13.01,2013-03-10 21:50:00,
2013-03-10 16:55:00,23.9,19.5,30.03,NNW,329,7.0,16.0,83,0.00,,---,0.00,VWS V13.01,2013-03-10 21:55:00,
2013-03-10 17:00:00,23.9,19.5,30.07,NNE,22,3.0,6.0,83,0.00,,---,0.00,VWS V13.01,2013-03-10 22:00:00,
2013-03-10 17:05:00,23.8,19.4,30.07,NNW,338,6.0,13.0,83,0.00,,---,0.00,VWS V13.01,2013-03-10 22:05:00,
2013-03-10 17:10:00,23.8,19.4,30.07,North,355,2.0,13.0,83,0.00,,---,0.00,VWS V13.01,2013-03-10 22:10:00,
2013-03-10 17:15:00,23.7,19.3,30.08,North,9,9.0,11.0,83,0.00,,---,0.00,VWS V13.01,2013-03-10 22:15:00,
2013-03-10 17:20:00,23.6,19.2,30.08,North,5,6.0,12.0,83,0.00,,---,0.00,VWS V13.01,2013-03-10 22:20:00,
2013-03-10 17:26:00,23.6,19.2,30.08,North,355,9.0,12.0,83,0.00,,---,0.00,VWS V13.01,2013-03-10 22:26:00,
2013-03-10 17:31:00,23.6,19.2,30.09,NNE,22,4.0,13.0,83,0.00,,---,0.00,VWS V13.01,2013-03-10 22:31:00,
2013-03-10 17:36:00,23.5,18.8,30.09,NNW,336,3.0,16.0,82,0.00,,---,0.00,VWS V13.01,2013-03-10 22:36:00,
2013-03-10 17:41:00,23.4,18.7,30.09,NNE,22,5.0,16.0,82,0.00,,---,0.00,VWS V13.01,2013-03-10 22:41:00,
2013-03-10 17:46:00,23.4,18.7,30.09,North,351,8.0,12.0,82,0.00,,---,0.00,VWS V13.01,2013-03-10 22:46:00,
2013-03-10 17:51:00,23.3,18.6,30.09,NNE,12,5.0,12.0,82,0.00,,---,0.00,VWS V13.01,2013-03-10 22:51:00,
2013-03-10 17:57:00,23.3,18.3,30.09,NNE,15,6.0,13.0,81,0.00,,---,0.00,VWS V13.01,2013-03-10 22:57:00,
2013-03-10 18:02:00,23.1,17.9,30.09,North,355,4.0,15.0,80,0.00,,---,0.00,VWS V13.01,2013-03-10 23:02:00,
2013-03-10 18:07:00,23.0,17.8,30.09,NNE,19,9.0,16.0,80,0.00,,---,0.00,VWS V13.01,2013-03-10 23:07:00,
2013-03-10 18:12:00,23.0,18.0,30.09,North,5,7.0,16.0,81,0.00,,---,0.00,VWS V13.01,2013-03-10 23:12:00,
2013-03-10 18:17:00,22.9,18.0,30.07,NNE,15,6.0,11.0,81,0.00,,---,0.00,VWS V13.01,2013-03-10 23:17:00,
2013-03-10 18:22:00,22.9,18.0,30.07,North,360,2.0,11.0,81,0.00,,---,0.00,VWS V13.01,2013-03-10 23:22:00,
2013-03-10 18:28:00,22.7,17.8,30.07,NNE,31,4.0,11.0,81,0.00,,---,0.00,VWS V13.01,2013-03-10 23:28:00,
2013-03-10 18:33:00,22.7,18.0,30.07,NNE,22,13.0,14.0,82,0.00,,---,0.00,VWS V13.01,2013-03-10 23:33:00,
2013-03-10 18:38:00,22.6,17.9,30.07,NNE,22,4.0,14.0,82,0.00,,---,0.00,VWS V13.01,2013-03-10 23:38:00,
2013-03-10 18:43:00,22.5,17.9,30.07,NNE,15,2.0,14.0,82,0.00,,---,0.00,VWS V13.01,2013-03-10 23:43:00,
2013-03-10 18:48:00,22.4,17.5,30.07,North,11,5.0,12.0,81,0.00,,---,0.00,VWS V13.01,2013-03-10 23:48:00,
2013-03-10 18:53:00,22.2,17.3,30.07,NNE,15,9.0,14.0,81,0.00,,---,0.00,VWS V13.01,2013-03-10 23:53:00,
2013-03-10 18:58:00,22.1,17.2,30.07,North,5,3.0,14.0,81,0.00,,---,0.00,VWS V13.01,2013-03-10 23:58:00,
2013-03-10 19:04:00,22.0,17.1,30.07,NNE,24,5.0,12.0,81,0.00,,---,0.00,VWS V13.01,2013-03-11 00:04:00,
2013-03-10 19:09:00,22.0,17.1,30.07,North,349,6.0,12.0,81,0.00,,---,0.00,VWS V13.01,2013-03-11 00:09:00,
2013-03-10 19:14:00,21.8,16.9,30.10,North,11,3.0,13.0,81,0.00,,---,0.00,VWS V13.01,2013-03-11 00:14:00,
2013-03-10 19:19:00,21.8,16.9,30.10,NNW,342,6.0,13.0,81,0.00,,---,0.00,VWS V13.01,2013-03-11 00:19:00,
2013-03-10 19:24:00,21.8,17.2,30.10,NNE,19,12.0,17.0,82,0.00,,---,0.00,VWS V13.01,2013-03-11 00:24:00,
2013-03-10 19:29:00,21.7,17.1,30.10,North,360,6.0,17.0,82,0.00,,---,0.00,VWS V13.01,2013-03-11 00:29:00,
2013-03-10 19:34:00,21.6,17.0,30.10,NNW,344,4.0,13.0,82,0.00,,---,0.00,VWS V13.01,2013-03-11 00:34:00,
2013-03-10 19:39:00,21.5,17.1,30.10,NNW,343,5.0,13.0,83,0.00,,---,0.00,VWS V13.01,2013-03-11 00:39:00,
2013-03-10 19:44:00,21.5,17.1,30.10,North,9,9.0,13.0,83,0.00,,---,0.00,VWS V13.01,2013-03-11 00:44:00,
2013-03-10 19:49:00,21.4,17.0,30.10,NE,37,3.0,12.0,83,0.00,,---,0.00,VWS V13.01,2013-03-11 00:49:00,
2013-03-10 19:55:00,21.3,17.2,30.10,North,5,2.0,14.0,84,0.00,,---,0.00,VWS V13.01,2013-03-11 00:55:00,
2013-03-10 20:00:00,21.3,17.2,30.10,NNE,16,7.0,14.0,84,0.00,,---,0.00,VWS V13.01,2013-03-11 01:00:00,
2013-03-10 20:05:00,21.1,17.0,30.10,NNE,21,12.0,12.0,84,0.00,,---,0.00,VWS V13.01,2013-03-11 01:05:00,
2013-03-10 20:10:00,21.1,17.0,30.10,NNE,13,4.0,12.0,84,0.00,,---,0.00,VWS V13.01,2013-03-11 01:10:00,
2013-03-10 20:15:00,21.0,17.2,30.09,NW,316,6.0,7.0,85,0.00,,---,0.00,VWS V13.01,2013-03-11 01:15:00,
2013-03-10 20:20:00,20.9,17.1,30.09,North,355,4.0,10.0,85,0.00,,---,0.00,VWS V13.01,2013-03-11 01:20:00,
2013-03-10 20:25:00,20.9,17.1,30.09,NE,41,4.0,10.0,85,0.00,,---,0.00,VWS V13.01,2013-03-11 01:25:00,
2013-03-10 20:30:00,20.9,17.1,30.10,North,360,1.0,3.0,85,0.00,,---,0.00,VWS V13.01,2013-03-11 01:30:00,
2013-03-10 20:36:00,20.8,17.0,30.10,NNE,16,0.0,10.0,85,0.00,,---,0.00,VWS V13.01,2013-03-11 01:36:00,
2013-03-10 20:41:00,20.8,17.0,30.10,NNE,16,2.0,12.0,85,0.00,,---,0.00,VWS V13.01,2013-03-11 01:41:00,
2013-03-10 20:46:00,20.8,17.0,30.10,North,5,6.0,6.0,85,0.00,,---,0.00,VWS V13.01,2013-03-11 01:46:00,
2013-03-10 20:52:00,20.8,17.3,30.10,NNE,13,4.0,7.0,86,0.00,,---,0.00,VWS V13.01,2013-03-11 01:52:00,
2013-03-10 20:57:00,20.8,17.3,30.10,NNE,13,1.0,7.0,86,0.00,,---,0.00,VWS V13.01,2013-03-11 01:57:00,
2013-03-10 21:02:00,20.8,17.3,30.10,NNE,13,3.0,6.0,86,0.00,,---,0.00,VWS V13.01,2013-03-11 02:02:00,
2013-03-10 21:07:00,20.7,17.2,30.10,NNE,26,2.0,9.0,86,0.00,,---,0.00,VWS V13.01,2013-03-11 02:07:00,
2013-03-10 21:13:00,20.7,17.5,30.10,NNE,24,3.0,11.0,87,0.00,,---,0.00,VWS V13.01,2013-03-11 02:13:00,
2013-03-10 21:18:00,20.7,17.5,30.10,NNE,30,3.0,11.0,87,0.00,,---,0.00,VWS V13.01,2013-03-11 02:18:00,
2013-03-10 21:23:00,20.7,17.5,30.10,NNE,20,3.0,11.0,87,0.00,,---,0.00,VWS V13.01,2013-03-11 02:23:00,
2013-03-10 21:28:00,20.6,17.1,30.10,NE,47,4.0,11.0,86,0.00,,---,0.00,VWS V13.01,2013-03-11 02:28:00,
2013-03-10 21:33:00,20.5,16.7,30.09,North,10,2.0,11.0,85,0.00,,---,0.00,VWS V13.01,2013-03-11 02:33:00,
2013-03-10 21:38:00,20.4,16.4,30.09,NNE,17,2.0,11.0,84,0.00,,---,0.00,VWS V13.01,2013-03-11 02:38:00,
2013-03-10 21:44:00,20.4,16.6,30.09,NE,35,9.0,11.0,85,0.00,,---,0.00,VWS V13.01,2013-03-11 02:44:00,
2013-03-10 21:49:00,20.3,16.5,30.10,NE,41,3.0,10.0,85,0.00,,---,0.00,VWS V13.01,2013-03-11 02:49:00,
2013-03-10 21:54:00,20.2,16.4,30.10,NNE,24,1.0,14.0,85,0.00,,---,0.00,VWS V13.01,2013-03-11 02:54:00,
2013-03-10 21:59:00,20.2,16.4,30.10,NE,51,2.0,14.0,85,0.00,,---,0.00,VWS V13.01,2013-03-11 02:59:00,
2013-03-10 22:04:00,20.2,16.4,30.10,NNE,16,5.0,7.0,85,0.00,,---,0.00,VWS V13.01,2013-03-11 03:04:00,
2013-03-10 22:09:00,20.1,16.3,30.10,NNE,20,3.0,9.0,85,0.00,,---,0.00,VWS V13.01,2013-03-11 03:09:00,
2013-03-10 22:14:00,20.1,16.6,30.11,NNE,23,4.0,10.0,86,0.00,,---,0.00,VWS V13.01,2013-03-11 03:14:00,
2013-03-10 22:20:00,20.0,16.5,30.11,NE,44,5.0,7.0,86,0.00,,---,0.00,VWS V13.01,2013-03-11 03:20:00,
2013-03-10 22:25:00,20.0,16.2,30.11,NNE,19,2.0,10.0,85,0.00,,---,0.00,VWS V13.01,2013-03-11 03:25:00,
2013-03-10 22:30:00,20.1,16.3,30.11,NNE,32,4.0,6.0,85,0.00,,---,0.00,VWS V13.01,2013-03-11 03:30:00,
2013-03-10 22:35:00,20.1,16.3,30.11,North,5,2.0,10.0,85,0.00,,---,0.00,VWS V13.01,2013-03-11 03:35:00,
2013-03-10 22:40:00,20.1,16.3,30.11,North,5,2.0,11.0,85,0.00,,---,0.00,VWS V13.01,2013-03-11 03:40:00,
2013-03-10 22:45:00,20.0,16.2,30.12,NNE,26,1.0,4.0,85,0.00,,---,0.00,VWS V13.01,2013-03-11 03:45:00,
2013-03-10 22:50:00,20.0,16.2,30.12,NNE,26,4.0,7.0,85,0.00,,---,0.00,VWS V13.01,2013-03-11 03:50:00,
2013-03-10 22:55:00,20.0,16.2,30.12,North,11,0.0,9.0,85,0.00,,---,0.00,VWS V13.01,2013-03-11 03:55:00,
2013-03-10 23:00:00,20.0,16.2,30.11,North,5,5.0,7.0,85,0.00,,---,0.00,VWS V13.01,2013-03-11 04:00:00,
2013-03-10 23:02:00,19.9,16.1,30.11,NNW,348,3.0,7.0,85,0.00,,---,0.00,VWS V13.01,2013-03-11 04:02:00,
2013-03-10 23:07:00,19.9,16.1,30.11,NNE,24,2.0,9.0,85,0.00,,---,0.00,VWS V13.01,2013-03-11 04:07:00,
2013-03-10 23:12:00,19.9,16.1,30.11,North,5,5.0,9.0,85,0.00,,---,0.00,VWS V13.01,2013-03-11 04:12:00,
2013-03-10 23:17:00,19.8,16.0,30.10,North,351,2.0,8.0,85,0.00,,---,0.00,VWS V13.01,2013-03-11 04:17:00,
2013-03-10 23:22:00,19.7,15.9,30.10,NNE,19,1.0,8.0,85,0.00,,---,0.00,VWS V13.01,2013-03-11 04:22:00,
2013-03-10 23:27:00,19.7,15.9,30.10,NE,37,0.0,8.0,85,0.00,,---,0.00,VWS V13.01,2013-03-11 04:27:00,
2013-03-10 23:33:00,19.7,15.9,30.10,North,5,5.0,10.0,85,0.00,,---,0.00,VWS V13.01,2013-03-11 04:33:00,
2013-03-10 23:38:00,19.7,15.9,30.10,NE,55,3.0,13.0,85,0.00,,---,0.00,VWS V13.01,2013-03-11 04:38:00,
2013-03-10 23:43:00,19.7,15.9,30.10,NE,36,1.0,13.0,85,0.00,,---,0.00,VWS V13.01,2013-03-11 04:43:00,
2013-03-10 23:48:00,19.7,16.2,30.09,NE,35,4.0,4.0,86,0.00,,---,0.00,VWS V13.01,2013-03-11 04:48:00,
2013-03-10 23:53:00,19.7,16.2,30.09,NE,54,4.0,6.0,86,0.00,,---,0.00,VWS V13.01,2013-03-11 04:53:00,
2013-03-10 23:58:00,19.6,16.1,30.09,NNE,28,4.0,9.0,86,0.00,,---,0.00,VWS V13.01,2013-03-11 04:58:00,